Tracking 30995 objects as of 5-Jul-2025
HD Live streaming from Space Station
objects crossing your sky now

COSMOS 2251 DEB

Track COSMOS 2251 DEB now!
10-day predictions


NORAD ID: 34972
Int'l Code: 1993-036AFB
Perigee: 644.1 km
Apogee: 698.5 km
Inclination: 74.0 °
Period: 98.0 minutes
Semi major axis: 7042 km
RCS: 0.0076 m2 (small)
Launch date: June 16, 1993
Source: Commonwealth of Independent States (former USSR) (CIS)
Launch site: PLESETSK MISSILE AND SPACE COMPLEX (PKMTR)

Note: This is SATELLITE DEBRIS
Your satellite tracking list
Your tracking list is empty




NASA's NSSDC Master Catalog

Two Line Element Set (TLE):
1 34972U 93036AFB 25185.50028046  .00006828  00000-0  11550-2 0  9990
2 34972  73.9902   3.7349 0038667 192.1550 199.3326 14.69028810852801
Source of the keplerian elements: AFSPC